{"data":{"norad_id":68815,"epoch":"2026-09-20T01:40:56.393760Z","epoch_age_seconds":77213,"freshness":"FRESH","line1":"1 68815U 26089P   26263.07009715  .00012148  00000+0  37796-3 0  9991","line2":"2 68815  97.2867 108.8493 0001991  89.6423 270.5048 15.33446821 23192","mean_motion":15.33446821,"eccentricity":0.0001991,"inclination_deg":97.2867,"raan_deg":108.8493,"arg_perigee_deg":89.6423,"mean_anomaly_deg":270.5048,"bstar":0.00037796,"rev_number":2319,"period_min":93.906093141263,"perigee_km":464.17518082466,"apogee_km":466.90033211269,"semimajor_km":6843.6747564687,"source":"CELESTRAK","updated_at":"2026-09-20T09:00:44.009431Z"}}